| time (UTC) | temp F | wind direction | speed MPH | gust MPH | rain 1hr in | rain 24hr in | rain mn in | humidity % | barometer mb |
| 20260905182444 | 62 | 36 | 6.0 | 19.0 | 0.00 | 0.06 | 0.06 | 77 | 1004.7 |
| 20260905182358 | 62 | 31 | 10.0 | 19.0 | 0.00 | 0.06 | 0.06 | 77 | 1004.9 |
| 20260905181439 | 62 | 37 | 8.0 | 18.0 | 0.00 | 0.06 | 0.06 | 77 | 1004.8 |
| 20260905180933 | 62 | 27 | 9.0 | 15.0 | 0.00 | 0.06 | 0.06 | 77 | 1004.6 |
| 20260905180429 | 62 | 63 | 4.0 | 14.0 | 0.00 | 0.06 | 0.06 | 77 | 1004.5 |
| 20260905175917 | 62 | 56 | 3.0 | 17.0 | 0.00 | 0.06 | 0.06 | 78 | 1004.6 |
| 20260905175413 | 62 | 41 | 7.0 | 21.0 | 0.00 | 0.06 | 0.06 | 77 | 1004.5 |
| 20260905174913 | 63 | 32 | 8.0 | 21.0 | 0.00 | 0.06 | 0.06 | 76 | 1004.8 |
| 20260905174413 | 63 | 31 | 5.0 | 18.0 | 0.00 | 0.06 | 0.06 | 76 | 1004.4 |
| 20260905173905 | 63 | 303 | 4.0 | 18.0 | 0.00 | 0.06 | 0.06 | 77 | 1004.6 |
| 20260905173745 | 63 | 41 | 5.0 | 17.0 | 0.00 | 0.06 | 0.06 | 78 | 1004.5 |
| 20260905172901 | 62 | 70 | 2.0 | 15.0 | 0.00 | 0.06 | 0.06 | 80 | 1004.7 |
| 20260905172401 | 62 | 30 | 7.0 | 15.0 | 0.00 | 0.06 | 0.06 | 80 | 1004.5 |
| 20260905171859 | 62 | 53 | 3.0 | 15.0 | 0.00 | 0.06 | 0.06 | 81 | 1004.5 |
| 20260905171357 | 63 | 33 | 11.0 | 12.0 | 0.00 | 0.06 | 0.06 | 80 | 1004.4 |
| 20260905170859 | 63 | 31 | 7.0 | 14.0 | 0.00 | 0.06 | 0.06 | 80 | 1004.6 |
| 20260905170357 | 63 | 345 | 4.0 | 16.0 | 0.00 | 0.06 | 0.06 | 79 | 1004.3 |
| 20260905165855 | 63 | 27 | 3.0 | 16.0 | 0.00 | 0.06 | 0.06 | 79 | 1004.3 |
| 20260905165355 | 63 | 93 | 2.0 | 14.0 | 0.00 | 0.06 | 0.06 | 81 | 1004.1 |
| 20260905164852 | 63 | 348 | 6.0 | 17.0 | 0.00 | 0.06 | 0.06 | 82 | 1004.2 |
| 20260905164346 | 63 | 351 | 4.0 | 17.0 | 0.00 | 0.06 | 0.06 | 82 | 1004.1 |
| 20260905163845 | 63 | 268 | 3.0 | 15.0 | 0.00 | 0.06 | 0.06 | 83 | 1004.1 |
| 20260905163337 | 63 | 30 | 5.0 | 15.0 | 0.00 | 0.06 | 0.06 | 84 | 1004.2 |
| 20260905162833 | 63 | 334 | 6.0 | 14.0 | 0.00 | 0.06 | 0.06 | 81 | 1004.1 |
| 20260905162335 | 63 | 66 | 6.0 | 15.0 | 0.00 | 0.06 | 0.06 | 83 | 1004.0 |
| 20260905161834 | 63 | 322 | 4.0 | 15.0 | 0.00 | 0.06 | 0.06 | 83 | 1004.1 |
| 20260905161333 | 63 | 56 | 7.0 | 18.0 | 0.00 | 0.06 | 0.06 | 83 | 1004.0 |
| 20260905160830 | 62 | 333 | 6.0 | 18.0 | 0.00 | 0.06 | 0.06 | 83 | 1003.8 |
| 20260905160331 | 63 | 284 | 8.0 | 17.0 | 0.00 | 0.06 | 0.06 | 84 | 1003.9 |
| 20260905155816 | 62 | 342 | 3.0 | 17.0 | 0.00 | 0.06 | 0.06 | 84 | 1003.7 |
| 20260905155752 | 63 | 25 | 2.0 | 15.0 | 0.00 | 0.06 | 0.06 | 85 | 1003.8 |
| 20260905154814 | 62 | 330 | 2.0 | 15.0 | 0.00 | 0.06 | 0.06 | 84 | 1003.8 |
| 20260905154315 | 62 | 37 | 7.0 | 15.0 | 0.00 | 0.06 | 0.06 | 84 | 1003.7 |
| 20260905153815 | 62 | 37 | 6.0 | 13.0 | 0.00 | 0.06 | 0.06 | 84 | 1003.7 |
| 20260905153313 | 62 | 18 | 5.0 | 15.0 | 0.00 | 0.06 | 0.06 | 85 | 1003.8 |
| 20260905152813 | 62 | 29 | 5.0 | 16.0 | 0.00 | 0.06 | 0.06 | 85 | 1003.7 |
| 20260905152312 | 62 | 353 | 4.0 | 16.0 | 0.00 | 0.06 | 0.06 | 84 | 1003.8 |
| 20260905151810 | 62 | 30 | 6.0 | 16.0 | 0.00 | 0.06 | 0.06 | 83 | 1003.7 |
| 20260905151309 | 62 | 304 | 5.0 | 16.0 | 0.00 | 0.06 | 0.06 | 82 | 1003.8 |
| 20260905151201 | 62 | 69 | 6.0 | 13.0 | 0.00 | 0.06 | 0.06 | 83 | 1003.6 |
| 20260905150305 | 62 | 16 | 2.0 | 12.0 | 0.00 | 0.06 | 0.06 | 84 | 1003.7 |
| 20260905145804 | 62 | 280 | 4.0 | 16.0 | 0.00 | 0.06 | 0.06 | 85 | 1003.5 |
| 20260905145306 | 62 | 21 | 5.0 | 16.0 | 0.00 | 0.06 | 0.06 | 84 | 1003.6 |
| 20260905144800 | 62 | 248 | 4.0 | 15.0 | 0.00 | 0.06 | 0.06 | 83 | 1003.4 |
| 20260905144257 | 62 | 15 | 4.0 | 15.0 | 0.00 | 0.06 | 0.06 | 83 | 1003.4 |
| 20260905143757 | 61 | 139 | 0.0 | 15.0 | 0.00 | 0.06 | 0.06 | 84 | 1003.6 |
| 20260905143252 | 61 | 48 | 5.0 | 15.0 | 0.00 | 0.06 | 0.06 | 85 | 1003.6 |
| 20260905143158 | 61 | 316 | 4.0 | 12.0 | 0.00 | 0.06 | 0.06 | 86 | 1003.3 |
| 20260905142717 | 60 | 16 | 3.0 | 13.0 | 0.00 | 0.06 | 0.06 | 86 | 1003.7 |
| 20260905141747 | 60 | 294 | 2.0 | 13.0 | 0.00 | 0.06 | 0.06 | 87 | 1003.7 |
| 20260905141247 | 60 | 290 | 2.0 | 10.0 | 0.00 | 0.06 | 0.06 | 87 | 1003.6 |
| 20260905140747 | 60 | 352 | 1.0 | 10.0 | 0.00 | 0.06 | 0.06 | 86 | 1003.8 |
| 20260905140245 | 60 | 7 | 5.0 | 10.0 | 0.00 | 0.06 | 0.06 | 86 | 1003.7 |
| 20260905135744 | 60 | 22 | 3.0 | 12.0 | 0.00 | 0.06 | 0.06 | 86 | 1003.5 |
| 20260905135244 | 60 | 2 | 6.0 | 12.0 | 0.00 | 0.06 | 0.06 | 87 | 1003.5 |
| 20260905134743 | 60 | 301 | 2.0 | 11.0 | 0.00 | 0.06 | 0.06 | 87 | 1003.6 |
| 20260905134242 | 60 | 311 | 4.0 | 14.0 | 0.00 | 0.06 | 0.06 | 87 | 1003.4 |
| 20260905133741 | 60 | 25 | 2.0 | 14.0 | 0.00 | 0.06 | 0.06 | 87 | 1003.5 |
| 20260905133254 | 60 | 69 | 6.0 | 11.0 | 0.00 | 0.06 | 0.06 | 86 | 1003.5 |
| 20260905132735 | 60 | 56 | 4.0 | 10.0 | 0.00 | 0.06 | 0.06 | 86 | 1003.6 |
| 20260905132234 | 60 | 358 | 2.0 | 10.0 | 0.00 | 0.06 | 0.06 | 86 | 1003.4 |
| 20260905131734 | 60 | 335 | 6.0 | 10.0 | 0.00 | 0.06 | 0.06 | 86 | 1003.2 |
| 20260905131247 | 60 | 321 | 5.0 | 21.0 | 0.00 | 0.06 | 0.06 | 87 | 1003.3 |
| 20260905131126 | 60 | 337 | 4.0 | 21.0 | 0.00 | 0.06 | 0.06 | 88 | 1003.2 |
| 20260905130234 | 60 | 48 | 11.0 | 14.0 | 0.00 | 0.06 | 0.06 | 88 | 1003.4 |
| 20260905125733 | 60 | 296 | 2.0 | 14.0 | 0.00 | 0.06 | 0.06 | 89 | 1003.2 |
| 20260905125651 | 60 | 341 | 3.0 | 14.0 | 0.00 | 0.06 | 0.06 | 89 | 1003.0 |
| 20260905124728 | 60 | 22 | 9.0 | 14.0 | 0.00 | 0.06 | 0.06 | 90 | 1003.1 |
| 20260905124219 | 60 | 355 | 2.0 | 12.0 | 0.00 | 0.06 | 0.06 | 91 | 1003.0 |
| 20260905123716 | 60 | 321 | 5.0 | 11.0 | 0.00 | 0.06 | 0.06 | 91 | 1003.1 |
| 20260905123215 | 60 | 332 | 2.0 | 10.0 | 0.00 | 0.06 | 0.06 | 91 | 1003.2 |
| 20260905123133 | 59 | 309 | 3.0 | 10.0 | 0.00 | 0.06 | 0.06 | 91 | 1002.9 |
| 20260905122212 | 59 | 61 | 3.0 | 14.0 | 0.00 | 0.06 | 0.06 | 92 | 1002.9 |
| 20260905121712 | 59 | 55 | 2.0 | 14.0 | 0.00 | 0.06 | 0.06 | 91 | 1003.1 |
| 20260905121208 | 59 | 9 | 4.0 | 11.0 | 0.00 | 0.06 | 0.06 | 91 | 1002.9 |
| 20260905120706 | 59 | 28 | 3.0 | 16.0 | 0.00 | 0.06 | 0.06 | 91 | 1002.9 |
| 20260905120219 | 59 | 35 | 6.0 | 16.0 | 0.00 | 0.06 | 0.06 | 92 | 1002.9 |
| 20260905115705 | 59 | 13 | 2.0 | 13.0 | 0.00 | 0.06 | 0.06 | 92 | 1002.9 |
| 20260905115209 | 59 | 310 | 2.0 | 8.0 | 0.00 | 0.06 | 0.06 | 93 | 1003.0 |
| 20260905114706 | 59 | 71 | 4.0 | 11.0 | 0.00 | 0.06 | 0.06 | 92 | 1002.9 |
| 20260905114206 | 59 | 85 | 2.0 | 12.0 | 0.00 | 0.06 | 0.06 | 93 | 1002.9 |
| 20260905114107 | 59 | 338 | 4.0 | 12.0 | 0.00 | 0.06 | 0.06 | 93 | 1002.8 |
| 20260905113200 | 59 | 310 | 4.0 | 15.0 | 0.00 | 0.06 | 0.06 | 93 | 1002.7 |
| 20260905112659 | 59 | 90 | 4.0 | 15.0 | 0.00 | 0.07 | 0.06 | 94 | 1002.9 |
| 20260905112200 | 59 | 118 | 2.0 | 13.0 | 0.00 | 0.07 | 0.06 | 95 | 1002.9 |
| 20260905112052 | 59 | 303 | 4.0 | 9.0 | 0.01 | 0.07 | 0.06 | 95 | 1002.9 |
| 20260905111146 | 59 | 306 | 3.0 | 9.0 | 0.01 | 0.07 | 0.06 | 96 | 1002.8 |
| 20260905110647 | 59 | 27 | 2.0 | 15.0 | 0.02 | 0.07 | 0.06 | 96 | 1002.9 |
| 20260905110145 | 59 | 355 | 5.0 | 15.0 | 0.02 | 0.07 | 0.06 | 96 | 1003.0 |
| 20260905105641 | 58 | 60 | 5.0 | 10.0 | 0.02 | 0.07 | 0.06 | 96 | 1002.9 |
| 20260905105139 | 58 | 209 | 2.0 | 11.0 | 0.02 | 0.07 | 0.06 | 96 | 1003.0 |
| 20260905104637 | 58 | 328 | 3.0 | 11.0 | 0.02 | 0.07 | 0.06 | 96 | 1003.0 |
| 20260905104135 | 58 | 10 | 3.0 | 6.0 | 0.02 | 0.07 | 0.06 | 96 | 1002.9 |
| 20260905103636 | 58 | 296 | 2.0 | 9.0 | 0.02 | 0.07 | 0.06 | 96 | 1003.0 |
| 20260905103134 | 58 | 28 | 2.0 | 11.0 | 0.02 | 0.07 | 0.06 | 96 | 1002.7 |
| 20260905102637 | 58 | 334 | 3.0 | 11.0 | 0.02 | 0.07 | 0.06 | 96 | 1002.8 |
| 20260905102527 | 58 | 289 | 6.0 | 7.0 | 0.01 | 0.06 | 0.05 | 96 | 1002.9 |
| 20260905102045 | 58 | 320 | 4.0 | 7.0 | 0.03 | 0.06 | 0.05 | 96 | 1002.8 |
| 20260905101537 | 58 | 327 | 5.0 | 7.0 | 0.03 | 0.06 | 0.05 | 96 | 1002.7 |
| 20260905100633 | 59 | 333 | 3.0 | 6.0 | 0.01 | 0.05 | 0.04 | 95 | 1002.7 |
| 20260905100520 | 59 | 25 | 1.0 | 8.0 | 0.01 | 0.05 | 0.04 | 95 | 1002.6 |
| 20260905100002 | 59 | 297 | 2.0 | 9.0 | 0.01 | 0.05 | 0.04 | 95 | 1002.8 |
| 20260905095127 | 59 | 20 | 2.0 | 9.0 | 0.01 | 0.05 | 0.04 | 95 | 1002.7 |
| 20260905094624 | 59 | 320 | 2.0 | 6.0 | 0.02 | 0.05 | 0.04 | 95 | 1002.5 |
| 20260905094257 | 59 | 329 | 3.0 | 6.0 | 0.02 | 0.05 | 0.04 | 96 | 1002.6 |
| 20260905093124 | 59 | 0 | 2.0 | 10.0 | 0.02 | 0.05 | 0.04 | 96 | 1002.5 |
| 20260905092621 | 59 | 281 | 5.0 | 10.0 | 0.02 | 0.05 | 0.04 | 96 | 1002.5 |
| 20260905092312 | 59 | 287 | 5.0 | 9.0 | 0.02 | 0.05 | 0.04 | 96 | 1002.4 |
| 20260905091117 | 59 | 293 | 2.0 | 14.0 | 0.01 | 0.03 | 0.02 | 95 | 1002.5 |
| 20260905090958 | 59 | 319 | 3.0 | 14.0 | 0.01 | 0.03 | 0.02 | 95 | 1002.5 |
| 20260905090120 | 59 | 296 | 4.0 | 11.0 | 0.01 | 0.03 | 0.02 | 95 | 1002.3 |
| 20260905085614 | 59 | 299 | 6.0 | 11.0 | 0.01 | 0.03 | 0.02 | 95 | 1002.6 |
| 20260905085110 | 59 | 306 | 4.0 | 11.0 | 0.01 | 0.03 | 0.02 | 94 | 1002.7 |
| 20260905085012 | 59 | 318 | 6.0 | 9.0 | 0.00 | 0.02 | 0.02 | 94 | 1002.4 |
| 20260905084104 | 59 | 316 | 5.0 | 11.0 | 0.00 | 0.02 | 0.01 | 95 | 1002.3 |
| 20260905083603 | 59 | 311 | 5.0 | 11.0 | 0.00 | 0.02 | 0.01 | 95 | 1002.3 |
| 20260905083449 | 59 | 302 | 7.0 | 11.0 | 0.00 | 0.04 | 0.01 | 95 | 1002.3 |
| 20260905082557 | 59 | 320 | 5.0 | 11.0 | 0.00 | 0.04 | 0.01 | 95 | 1002.3 |
| 20260905082057 | 59 | 323 | 5.0 | 9.0 | 0.00 | 0.04 | 0.01 | 95 | 1002.3 |
| 20260905081953 | 59 | 307 | 4.0 | 9.0 | 0.00 | 0.04 | 0.01 | 94 | 1002.4 |
| 20260905081235 | 59 | 307 | 4.0 | 11.0 | 0.00 | 0.04 | 0.01 | 94 | 1002.2 |
| 20260905081129 | 59 | 292 | 6.0 | 11.0 | 0.00 | 0.04 | 0.01 | 94 | 1002.3 |
| 20260905075547 | 60 | 303 | 4.0 | 6.0 | 0.00 | 0.04 | 0.01 | 95 | 1002.2 |
| 20260905075050 | 60 | 305 | 4.0 | 6.0 | 0.01 | 0.04 | 0.01 | 95 | 1002.1 |
| 20260905074549 | 60 | 307 | 4.0 | 6.0 | 0.01 | 0.04 | 0.01 | 94 | 1002.2 |
| 20260905074048 | 60 | 345 | 2.0 | 6.0 | 0.01 | 0.04 | 0.01 | 94 | 1002.3 |
| 20260905073544 | 60 | 319 | 6.0 | 6.0 | 0.01 | 0.04 | 0.01 | 94 | 1002.2 |
| 20260905073043 | 60 | 324 | 3.0 | 9.0 | 0.01 | 0.05 | 0.01 | 94 | 1002.3 |
| 20260905072541 | 60 | 315 | 2.0 | 9.0 | 0.01 | 0.05 | 0.01 | 95 | 1002.2 |
| 20260905072041 | 60 | 278 | 2.0 | 7.0 | 0.01 | 0.05 | 0.01 | 95 | 1002.3 |
| 20260905071541 | 60 | 324 | 2.0 | 5.0 | 0.01 | 0.05 | 0.01 | 95 | 1002.1 |
| 20260905071040 | 60 | 297 | 2.0 | 5.0 | 0.01 | 0.05 | 0.01 | 95 | 1002.3 |
| 20260905070537 | 60 | 300 | 4.0 | 6.0 | 0.01 | 0.05 | 0.01 | 95 | 1002.3 |
| 20260905070034 | 60 | 319 | 1.0 | 6.0 | 0.01 | 0.05 | 0.01 | 95 | 1002.1 |
| 20260905065532 | 60 | 315 | 3.0 | 10.0 | 0.01 | 0.05 | 0.01 | 94 | 1002.2 |
| 20260905065031 | 60 | 306 | 3.0 | 10.0 | 0.00 | 0.03 | 0.00 | 94 | 1002.2 |
| 20260905064530 | 60 | 326 | 2.0 | 6.0 | 0.00 | 0.03 | 0.00 | 94 | 1002.2 |
| 20260905064029 | 60 | 305 | 4.0 | 9.0 | 0.00 | 0.03 | 0.00 | 94 | 1002.1 |
| 20260905063527 | 60 | 338 | 1.0 | 12.0 | 0.00 | 0.03 | 0.00 | 94 | 1002.2 |
| 20260905063023 | 61 | 313 | 5.0 | 12.0 | 0.00 | 0.05 | 0.00 | 93 | 1002.0 |
| 20260905062520 | 61 | 92 | 2.0 | 8.0 | 0.00 | 0.05 | 0.00 | 93 | 1002.2 |
| 20260905062020 | 61 | 323 | 2.0 | 8.0 | 0.00 | 0.05 | 0.00 | 93 | 1002.2 |
| 20260905061520 | 61 | 315 | 3.0 | 7.0 | 0.00 | 0.05 | 0.00 | 93 | 1002.3 |
| 20260905061413 | 61 | 284 | 1.0 | 7.0 | 0.00 | 0.05 | 0.00 | 94 | 1002.3 |
| 20260905060519 | 61 | 306 | 4.0 | 7.0 | 0.00 | 0.06 | 0.00 | 94 | 1002.3 |
| 20260905060018 | 61 | 318 | 3.0 | 7.0 | 0.00 | 0.06 | 0.00 | 93 | 1002.1 |
| 20260905055520 | 61 | 349 | 2.0 | 6.0 | 0.00 | 0.06 | 0.00 | 94 | 1002.1 |
| 20260905055510 | 61 | 321 | 1.0 | 8.0 | 0.00 | 0.06 | 0.00 | 94 | 1002.1 |
| 20260905054516 | 61 | 161 | 1.0 | 8.0 | 0.00 | 0.06 | 0.00 | 94 | 1002.2 |
| 20260905054017 | 61 | 314 | 4.0 | 9.0 | 0.00 | 0.07 | 0.00 | 94 | 1002.2 |
| 20260905053516 | 61 | 6 | 2.0 | 12.0 | 0.00 | 0.09 | 0.00 | 94 | 1002.1 |
| 20260905053014 | 61 | 41 | 5.0 | 12.0 | 0.00 | 0.09 | 0.00 | 95 | 1002.2 |
| 20260905052519 | 61 | 331 | 2.0 | 6.0 | 0.00 | 0.09 | 0.00 | 95 | 1002.4 |
| 20260905052013 | 60 | 26 | 2.0 | 6.0 | 0.00 | 0.10 | 0.00 | 95 | 1002.2 |
| 20260905051511 | 61 | 313 | 2.0 | 7.0 | 0.00 | 0.10 | 0.00 | 95 | 1002.5 |
| 20260905051010 | 61 | 325 | 5.0 | 7.0 | 0.00 | 0.10 | 0.00 | 95 | 1002.3 |
| 20260905050458 | 61 | 303 | 0.0 | 6.0 | 0.00 | 0.10 | 0.00 | 95 | 1002.3 |
| 20260905050136 | 61 | 307 | 5.0 | 6.0 | 0.00 | 0.10 | 0.00 | 94 | 1002.5 |
| 20260905044950 | 61 | 319 | 4.0 | 10.0 | 0.00 | 0.10 | 0.00 | 94 | 1002.7 |
| 20260905044449 | 61 | 308 | 4.0 | 11.0 | 0.00 | 0.10 | 0.00 | 93 | 1002.7 |
| 20260905043944 | 62 | 296 | 7.0 | 11.0 | 0.00 | 0.10 | 0.00 | 93 | 1002.5 |
| 20260905043623 | 62 | 299 | 2.0 | 11.0 | 0.00 | 0.10 | 0.00 | 92 | 1002.6 |
| 20260905042443 | 62 | 313 | 6.0 | 10.0 | 0.00 | 0.10 | 0.00 | 91 | 1002.6 |
| 20260905041940 | 62 | 322 | 4.0 | 6.0 | 0.00 | 0.10 | 0.00 | 92 | 1002.6 |
| 20260905041439 | 62 | 33 | 1.0 | 7.0 | 0.00 | 0.10 | 0.00 | 92 | 1002.4 |
| 20260905040940 | 61 | 321 | 3.0 | 7.0 | 0.00 | 0.10 | 0.00 | 92 | 1002.5 |
| 20260905040437 | 61 | 332 | 3.0 | 5.0 | 0.00 | 0.12 | 0.00 | 93 | 1002.6 |
| 20260905035934 | 61 | 293 | 3.0 | 5.0 | 0.00 | 0.12 | 0.00 | 94 | 1002.6 |
| 20260905035434 | 61 | 54 | 3.0 | 5.0 | 0.00 | 0.12 | 0.00 | 94 | 1002.7 |
| 20260905035339 | 61 | 316 | 2.0 | 3.0 | 0.00 | 0.13 | 0.00 | 95 | 1002.6 |
| 20260905034432 | 61 | 119 | 2.0 | 3.0 | 0.00 | 0.13 | 0.00 | 94 | 1002.6 |
| 20260905033928 | 61 | 299 | 2.0 | 3.0 | 0.00 | 0.14 | 0.00 | 95 | 1002.6 |
| 20260905033426 | 61 | 291 | 2.0 | 3.0 | 0.00 | 0.16 | 0.00 | 95 | 1002.7 |
| 20260905032913 | 61 | 322 | 0.0 | 2.0 | 0.00 | 0.20 | 0.00 | 95 | 1002.5 |
| 20260905032413 | 61 | 265 | 1.0 | 2.0 | 0.00 | 0.27 | 0.00 | 95 | 1002.8 |
| 20260905031912 | 61 | 31 | 1.0 | 3.0 | 0.00 | 0.31 | 0.00 | 95 | 1002.9 |
| 20260905031413 | 61 | 325 | 1.0 | 3.0 | 0.00 | 0.34 | 0.00 | 95 | 1002.9 |
| 20260905030910 | 60 | 24 | 0.0 | 3.0 | 0.00 | 0.34 | 0.00 | 95 | 1002.9 |
| 20260905030410 | 61 | 284 | 0.0 | 3.0 | 0.00 | 0.34 | 0.00 | 95 | 1002.9 |
| 20260905025910 | 61 | 19 | 0.0 | 3.0 | 0.00 | 0.34 | 0.34 | 94 | 1002.7 |
| 20260905025408 | 61 | 307 | 2.0 | 3.0 | 0.00 | 0.34 | 0.34 | 94 | 1002.6 |
| 20260905024907 | 61 | 320 | 1.0 | 3.0 | 0.00 | 0.34 | 0.34 | 94 | 1002.6 |
| 20260905024407 | 61 | 317 | 2.0 | 3.0 | 0.00 | 0.34 | 0.34 | 93 | 1002.9 |
| 20260905023859 | 62 | 295 | 1.0 | 2.0 | 0.00 | 0.34 | 0.34 | 93 | 1002.6 |
| 20260905023530 | 62 | 306 | 1.0 | 3.0 | 0.00 | 0.34 | 0.34 | 93 | 1002.9 |
| 20260905022347 | 62 | 312 | 1.0 | 4.0 | 0.00 | 0.34 | 0.34 | 92 | 1002.8 |
| 20260905021846 | 63 | 325 | 2.0 | 4.0 | 0.00 | 0.34 | 0.34 | 92 | 1003.0 |
| 20260905021345 | 63 | 323 | 3.0 | 5.0 | 0.00 | 0.34 | 0.34 | 92 | 1003.0 |
| 20260905021225 | 63 | 83 | 2.0 | 5.0 | 0.00 | 0.34 | 0.34 | 93 | 1003.3 |
| 20260905020531 | 63 | 314 | 4.0 | 5.0 | 0.00 | 0.34 | 0.34 | 94 | 1003.4 |
| 20260905015340 | 63 | 283 | 3.0 | 6.0 | 0.00 | 0.34 | 0.34 | 94 | 1003.2 |
| 20260905014845 | 63 | 308 | 4.0 | 6.0 | 0.00 | 0.34 | 0.34 | 93 | 1003.2 |
| 20260905014340 | 64 | 311 | 3.0 | 6.0 | 0.00 | 0.34 | 0.34 | 93 | 1003.0 |
| 20260905013838 | 64 | 310 | 5.0 | 7.0 | 0.00 | 0.34 | 0.34 | 93 | 1003.3 |
| 20260905013339 | 64 | 312 | 4.0 | 7.0 | 0.00 | 0.34 | 0.34 | 93 | 1003.1 |
| 20260905012838 | 64 | 294 | 4.0 | 7.0 | 0.00 | 0.34 | 0.34 | 92 | 1003.6 |
| 20260905012343 | 64 | 301 | 3.0 | 7.0 | 0.00 | 0.34 | 0.34 | 91 | 1003.2 |
| 20260905011826 | 64 | 309 | 2.0 | 4.0 | 0.00 | 0.34 | 0.34 | 91 | 1003.2 |
| 20260905011328 | 64 | 290 | 3.0 | 3.0 | 0.00 | 0.34 | 0.34 | 89 | 1003.4 |
| 20260905010825 | 64 | 311 | 2.0 | 3.0 | 0.00 | 0.34 | 0.34 | 89 | 1003.3 |
| 20260905010324 | 64 | 240 | 0.0 | 3.0 | 0.00 | 0.34 | 0.34 | 89 | 1003.2 |
| 20260905005822 | 65 | 218 | 2.0 | 4.0 | 0.00 | 0.34 | 0.34 | 89 | 1003.3 |
| 20260905005709 | 65 | 259 | 1.0 | 5.0 | 0.00 | 0.34 | 0.34 | 89 | 1003.2 |
| 20260905004834 | 65 | 309 | 1.0 | 5.0 | 0.00 | 0.34 | 0.34 | 89 | 1003.2 |
| 20260905004332 | 65 | 213 | 2.0 | 4.0 | 0.00 | 0.34 | 0.34 | 89 | 1003.2 |
| 20260905003815 | 65 | 328 | 1.0 | 4.0 | 0.00 | 0.34 | 0.34 | 89 | 1003.4 |
| 20260905003315 | 65 | 199 | 0.0 | 4.0 | 0.00 | 0.34 | 0.34 | 89 | 1003.5 |
| 20260905002813 | 64 | 271 | 2.0 | 4.0 | 0.00 | 0.34 | 0.34 | 89 | 1003.4 |
| 20260905002313 | 65 | 244 | 0.0 | 2.0 | 0.00 | 0.34 | 0.34 | 89 | 1003.6 |
| 20260905001813 | 65 | 253 | 1.0 | 2.0 | 0.00 | 0.34 | 0.34 | 89 | 1003.6 |
| 20260905001309 | 65 | 199 | 0.0 | 4.0 | 0.00 | 0.34 | 0.34 | 89 | 1003.6 |
| 20260905000808 | 65 | 232 | 0.0 | 4.0 | 0.00 | 0.34 | 0.34 | 88 | 1003.7 |
| 20260905000307 | 64 | 299 | 2.0 | 2.0 | 0.00 | 0.34 | 0.34 | 89 | 1003.7 |
| 20260904235805 | 64 | 323 | 2.0 | 3.0 | 0.00 | 0.34 | 0.34 | 89 | 1003.7 |
| 20260904235306 | 64 | 117 | 0.0 | 3.0 | 0.00 | 0.34 | 0.34 | 89 | 1003.5 |
| 20260904234800 | 64 | 213 | 1.0 | 5.0 | 0.00 | 0.34 | 0.34 | 89 | 1003.7 |
| 20260904234258 | 65 | 240 | 2.0 | 5.0 | 0.00 | 0.34 | 0.34 | 88 | 1003.6 |
| 20260904234143 | 65 | 272 | 3.0 | 5.0 | 0.00 | 0.34 | 0.34 | 88 | 1003.5 |
| 20260904233425 | 65 | 307 | 3.0 | 6.0 | 0.00 | 0.34 | 0.34 | 88 | 1003.5 |
| 20260904232711 | 65 | 316 | 2.0 | 4.0 | 0.00 | 0.34 | 0.34 | 88 | 1003.4 |
| 20260904232158 | 65 | 312 | 2.0 | 4.0 | 0.00 | 0.34 | 0.34 | 88 | 1003.4 |
| 20260904231248 | 65 | 315 | 3.0 | 6.0 | 0.00 | 0.34 | 0.34 | 88 | 1003.5 |
| 20260904230748 | 65 | 308 | 3.0 | 6.0 | 0.00 | 0.34 | 0.34 | 88 | 1003.3 |
| 20260904230648 | 65 | 302 | 4.0 | 6.0 | 0.00 | 0.34 | 0.34 | 88 | 1003.2 |
| 20260904225742 | 65 | 307 | 3.0 | 7.0 | 0.00 | 0.34 | 0.34 | 88 | 1003.2 |
| 20260904225241 | 65 | 309 | 3.0 | 7.0 | 0.00 | 0.34 | 0.34 | 88 | 1003.4 |
| 20260904224741 | 65 | 299 | 4.0 | 7.0 | 0.00 | 0.34 | 0.34 | 88 | 1003.4 |
| 20260904224239 | 65 | 310 | 3.0 | 8.0 | 0.00 | 0.34 | 0.34 | 88 | 1003.5 |
| 20260904223739 | 65 | 309 | 5.0 | 8.0 | 0.00 | 0.34 | 0.34 | 88 | 1003.4 |
| 20260904223230 | 65 | 307 | 4.0 | 7.0 | 0.00 | 0.34 | 0.34 | 88 | 1003.6 |
| 20260904222726 | 65 | 318 | 4.0 | 6.0 | 0.00 | 0.34 | 0.34 | 88 | 1003.5 |
| 20260904222217 | 65 | 317 | 4.0 | 6.0 | 0.00 | 0.34 | 0.34 | 88 | 1003.6 |
| 20260904221716 | 65 | 316 | 5.0 | 8.0 | 0.00 | 0.34 | 0.34 | 88 | 1003.5 |
| 20260904221211 | 65 | 309 | 4.0 | 8.0 | 0.00 | 0.34 | 0.34 | 88 | 1003.5 |
| 20260904221055 | 65 | 304 | 3.0 | 7.0 | 0.00 | 0.34 | 0.34 | 88 | 1003.5 |
| 20260904220600 | 65 | 309 | 4.0 | 9.0 | 0.00 | 0.34 | 0.34 | 88 | 1003.5 |
| 20260904215657 | 65 | 311 | 3.0 | 9.0 | 0.00 | 0.34 | 0.34 | 88 | 1003.6 |
| 20260904215153 | 65 | 316 | 3.0 | 6.0 | 0.00 | 0.34 | 0.34 | 89 | 1003.8 |
| 20260904214652 | 66 | 275 | 4.0 | 7.0 | 0.00 | 0.34 | 0.34 | 88 | 1003.5 |
| 20260904214157 | 66 | 269 | 4.0 | 7.0 | 0.00 | 0.34 | 0.34 | 88 | 1003.7 |
| 20260904213652 | 66 | 307 | 5.0 | 6.0 | 0.00 | 0.34 | 0.34 | 88 | 1003.6 |
| 20260904213151 | 66 | 306 | 3.0 | 7.0 | 0.00 | 0.34 | 0.34 | 89 | 1003.7 |
| 20260904213100 | 66 | 290 | 2.0 | 7.0 | 0.00 | 0.34 | 0.34 | 89 | 1003.7 |
| 20260904212600 | 66 | 228 | 3.0 | 5.0 | 0.00 | 0.34 | 0.34 | 90 | 1003.7 |
| 20260904211650 | 66 | 311 | 3.0 | 7.0 | 0.00 | 0.34 | 0.34 | 90 | 1003.7 |
| 20260904211139 | 66 | 258 | 4.0 | 7.0 | 0.00 | 0.34 | 0.34 | 90 | 1003.9 |
| 20260904210635 | 66 | 265 | 2.0 | 6.0 | 0.00 | 0.34 | 0.34 | 90 | 1004.0 |
| 20260904210133 | 66 | 254 | 2.0 | 6.0 | 0.00 | 0.34 | 0.34 | 91 | 1003.9 |
| 20260904205633 | 66 | 242 | 2.0 | 6.0 | 0.00 | 0.34 | 0.34 | 91 | 1003.9 |
| 20260904205133 | 66 | 231 | 3.0 | 6.0 | 0.00 | 0.34 | 0.34 | 90 | 1004.0 |
| 20260904204633 | 66 | 242 | 3.0 | 6.0 | 0.00 | 0.34 | 0.34 | 90 | 1004.0 |
| 20260904204130 | 66 | 235 | 1.0 | 6.0 | 0.00 | 0.34 | 0.34 | 90 | 1004.0 |
| 20260904203627 | 66 | 235 | 4.0 | 8.0 | 0.00 | 0.34 | 0.34 | 90 | 1004.1 |
| 20260904203124 | 66 | 237 | 2.0 | 8.0 | 0.00 | 0.34 | 0.34 | 89 | 1004.0 |
| 20260904202625 | 66 | 301 | 4.0 | 6.0 | 0.00 | 0.34 | 0.34 | 89 | 1004.0 |
| 20260904202125 | 66 | 308 | 3.0 | 8.0 | 0.00 | 0.34 | 0.34 | 89 | 1004.1 |
| 20260904201625 | 67 | 297 | 3.0 | 8.0 | 0.00 | 0.34 | 0.34 | 89 | 1004.0 |
| 20260904201125 | 67 | 283 | 2.0 | 6.0 | 0.00 | 0.34 | 0.34 | 89 | 1004.2 |
| 20260904200622 | 67 | 267 | 3.0 | 6.0 | 0.00 | 0.34 | 0.34 | 89 | 1004.1 |
| 20260904200123 | 67 | 268 | 4.0 | 5.0 | 0.00 | 0.34 | 0.34 | 89 | 1004.0 |
| 20260904195619 | 67 | 291 | 2.0 | 5.0 | 0.00 | 0.34 | 0.34 | 89 | 1004.0 |
| 20260904195117 | 67 | 205 | 2.0 | 5.0 | 0.00 | 0.34 | 0.34 | 89 | 1004.1 |
| 20260904194615 | 67 | 310 | 3.0 | 5.0 | 0.00 | 0.34 | 0.34 | 89 | 1004.3 |
| 20260904194114 | 66 | 234 | 1.0 | 5.0 | 0.00 | 0.34 | 0.34 | 90 | 1004.2 |
| 20260904193613 | 66 | 244 | 2.0 | 5.0 | 0.00 | 0.34 | 0.34 | 90 | 1003.9 |
| 20260904193112 | 66 | 309 | 3.0 | 6.0 | 0.00 | 0.34 | 0.34 | 90 | 1004.0 |
| 20260904192610 | 66 | 297 | 3.0 | 9.0 | 0.00 | 0.34 | 0.34 | 90 | 1004.2 |
| 20260904192110 | 66 | 253 | 5.0 | 9.0 | 0.00 | 0.34 | 0.34 | 91 | 1004.2 |
| 20260904191611 | 66 | 301 | 3.0 | 7.0 | 0.00 | 0.34 | 0.34 | 90 | 1004.1 |
| 20260904191110 | 66 | 190 | 3.0 | 6.0 | 0.00 | 0.34 | 0.34 | 90 | 1004.2 |
| 20260904190611 | 66 | 316 | 2.0 | 4.0 | 0.00 | 0.34 | 0.34 | 90 | 1004.1 |
| 20260904190117 | 66 | 297 | 2.0 | 4.0 | 0.00 | 0.34 | 0.34 | 89 | 1004.1 |
| 20260904185609 | 67 | 259 | 3.0 | 5.0 | 0.00 | 0.34 | 0.34 | 89 | 1004.2 |
| 20260904185103 | 67 | 296 | 3.0 | 5.0 | 0.00 | 0.34 | 0.34 | 89 | 1004.1 |
| 20260904184604 | 67 | 279 | 2.0 | 6.0 | 0.00 | 0.34 | 0.34 | 89 | 1004.3 |
| 20260904184054 | 66 | 279 | 4.0 | 6.0 | 0.00 | 0.34 | 0.34 | 89 | 1004.4 |
| 20260904183553 | 67 | 307 | 5.0 | 6.0 | 0.00 | 0.34 | 0.34 | 89 | 1004.2 |
| 20260904183052 | 67 | 274 | 3.0 | 6.0 | 0.00 | 0.34 | 0.34 | 88 | 1004.3 |